Melfa, VA

5:01 AM EDT on March 29, 2017 (GMT -0400)
Accomack County

Weather History for KMFV - January, 2013

Change the Weather History Date:

Sunday, January 6, 2013

  Actual Average (KWAL) Record (KWAL)
Temperature  
Mean Temperature 42 °F -  
Max Temperature 48 °F 45 °F 70 °F (2007)
Min Temperature 35 °F 30 °F 13 °F (1999)
Degree Days  
Heating Degree Days 24    
Moisture  
Dew Point 35 °F    
Average Humidity 76    
Maximum Humidity 93    
Minimum Humidity 54    
Precipitation  
Precipitation 0.02 in - - ()
Sea Level Pressure  
Sea Level Pressure 30.13 in    
Wind  
Wind Speed 5 mph (ESE)    
Max Wind Speed 13 mph    
Max Gust Speed 16 mph    
Visibility 10 miles    
Events Rain    
Averages and records for this station are not official NWS values.
T = Trace of Precipitation, MM = Missing Value Source: NWS Daily Summary

Daily Weather History Graph

Daily Weather History Graph

Search for Another Location

Airport or City:

Trip Planner

Search our weather history database for the weather conditions in past years. The results will help you decide how hot, cold, wet, or windy it might be!

Date:

Astronomy

Jan. 06, 2013 Rise Set
Actual Time 7:18 AM EST 4:59 PM EST
Civil Twilight 6:49 AM EST 5:28 PM EST
Nautical Twilight 6:16 AM EST 6:01 PM EST
Astronomical Twilight 5:45 AM EST 6:33 PM EST
Moon 1:32 AM EST (1/6) 12:23 PM EST (1/6)
Length of Visible Light 10h 39m
Length of Day
9h 41m
Waning Crescent, 33% of the Moon is Illuminated
Jan 6
Waning Crescent
Jan 11
New
Jan 18
First Quarter
Jan 26
Full
Feb 3
Last Quarter

Hourly Weather History & Observations

Time (EST) Temp. Windchill Dew Point Humidity Pressure Visibility Wind Dir Wind Speed Gust Speed Precip Events Conditions
12:15 AM 42.8 °F 40.1 °F 32.0 °F 66% 30.25 in 10.0 mi ESE 4.6 mph - N/A   Clear
12:35 AM 42.8 °F 41.1 °F 32.0 °F 66% 30.25 in 10.0 mi ESE 3.5 mph - N/A   Clear
12:55 AM 42.8 °F 40.1 °F 33.8 °F 70% 30.23 in 10.0 mi ESE 4.6 mph - N/A   Scattered Clouds
1:15 AM 42.8 °F 38.6 °F 33.8 °F 70% 30.21 in 10.0 mi ESE 6.9 mph - N/A   Mostly Cloudy
1:35 AM 42.8 °F 39.3 °F 35.6 °F 76% 30.21 in 10.0 mi ESE 5.8 mph - N/A   Mostly Cloudy
1:55 AM 42.8 °F 38.0 °F 35.6 °F 76% 30.22 in 10.0 mi ESE 8.1 mph - N/A   Mostly Cloudy
2:15 AM 42.8 °F 38.6 °F 35.6 °F 76% 30.22 in 10.0 mi ESE 6.9 mph - N/A   Light Drizzle
2:35 AM 44.6 °F 41.4 °F 35.6 °F 71% 30.22 in 10.0 mi ESE 5.8 mph - N/A   Overcast
2:55 AM 44.6 °F - 33.8 °F 66% 30.22 in 10.0 mi Calm Calm - N/A Rain Light Rain
3:15 AM 42.8 °F 40.1 °F 33.8 °F 70% 30.21 in 10.0 mi ESE 4.6 mph - N/A Rain Light Rain
3:35 AM 41.0 °F 38.0 °F 35.6 °F 81% 30.20 in 10.0 mi ESE 4.6 mph - N/A Rain Light Rain
3:55 AM 39.2 °F 35.0 °F 37.4 °F 93% 30.20 in 10.0 mi ESE 5.8 mph - N/A Rain Light Rain
4:15 AM 41.0 °F 36.4 °F 35.6 °F 81% 30.19 in 10.0 mi ESE 6.9 mph - 0.01 in Rain Rain
4:35 AM 41.0 °F 35.2 °F 35.6 °F 81% 30.18 in 10.0 mi East 9.2 mph - 0.01 in Rain Light Rain
5:15 AM 41.0 °F 36.4 °F 37.4 °F 87% 30.17 in 10.0 mi ESE 6.9 mph - 0.01 in Rain Light Rain
5:35 AM 41.0 °F 37.1 °F 37.4 °F 87% 30.17 in 10.0 mi ESE 5.8 mph - 0.01 in Rain Rain
5:55 AM 41.0 °F 37.1 °F 37.4 °F 87% 30.16 in 10.0 mi ESE 5.8 mph - 0.01 in Rain Rain
6:15 AM 41.0 °F 36.4 °F 37.4 °F 87% 30.16 in 10.0 mi ESE 6.9 mph - N/A   Light Drizzle
6:35 AM 41.0 °F 36.4 °F 37.4 °F 87% 30.17 in 10.0 mi ESE 6.9 mph - N/A   Overcast
6:56 AM 41.0 °F 36.4 °F 37.4 °F 87% 30.16 in 10.0 mi ESE 6.9 mph - N/A   Overcast
7:15 AM 41.0 °F 36.4 °F 37.4 °F 87% 30.16 in 10.0 mi ESE 6.9 mph - N/A   Overcast
7:35 AM 41.0 °F 36.4 °F 37.4 °F 87% 30.15 in 10.0 mi ESE 6.9 mph - N/A   Overcast
7:55 AM 41.0 °F 37.1 °F 37.4 °F 87% 30.16 in 10.0 mi ESE 5.8 mph - N/A   Overcast
8:17 AM 42.8 °F 40.1 °F 37.4 °F 81% 30.16 in 10.0 mi ESE 4.6 mph - N/A   Mostly Cloudy
8:35 AM 42.8 °F 39.3 °F 35.6 °F 76% 30.16 in 10.0 mi ESE 5.8 mph - N/A   Scattered Clouds
8:57 AM 42.8 °F 40.1 °F 35.6 °F 76% 30.16 in 10.0 mi ESE 4.6 mph - N/A   Clear
9:35 AM 44.6 °F 39.7 °F 37.4 °F 76% 30.16 in 10.0 mi ESE 9.2 mph - N/A   Clear
9:55 AM 46.4 °F 40.7 °F 35.6 °F 66% 30.16 in 10.0 mi East 12.7 mph - N/A   Scattered Clouds
10:15 AM 46.4 °F 41.9 °F 35.6 °F 66% 30.16 in 10.0 mi ESE 9.2 mph 16.1 mph N/A   Scattered Clouds
10:36 AM 46.4 °F 43.5 °F 35.6 °F 66% 30.17 in 10.0 mi ESE 5.8 mph - N/A   Scattered Clouds
10:55 AM 46.4 °F 41.9 °F 35.6 °F 66% 30.15 in 10.0 mi ESE 9.2 mph 16.1 mph N/A   Clear
11:15 AM 46.4 °F 41.9 °F 35.6 °F 66% 30.13 in 10.0 mi ESE 9.2 mph - N/A   Clear
11:35 AM 44.6 °F 40.7 °F 35.6 °F 71% 30.12 in 10.0 mi ESE 6.9 mph - N/A   Clear
11:55 AM 44.6 °F 40.7 °F 35.6 °F 71% 30.12 in 10.0 mi ESE 6.9 mph - N/A   Clear
12:15 PM 44.6 °F 41.4 °F 35.6 °F 71% 30.10 in 10.0 mi ESE 5.8 mph - N/A   Clear
12:35 PM 44.6 °F 41.4 °F 33.8 °F 66% 30.10 in 10.0 mi ESE 5.8 mph - N/A   Clear
12:55 PM 46.4 °F 43.5 °F 35.6 °F 66% 30.09 in 10.0 mi ESE 5.8 mph - N/A   Clear
1:15 PM 46.4 °F 45.2 °F 33.8 °F 62% 30.08 in 10.0 mi ESE 3.5 mph - N/A   Clear
1:35 PM 46.4 °F 45.2 °F 33.8 °F 62% 30.08 in 10.0 mi ESE 3.5 mph - N/A   Scattered Clouds
1:55 PM 46.4 °F - 33.8 °F 62% 30.07 in 10.0 mi Calm Calm - N/A   Mostly Cloudy
2:15 PM 46.4 °F 44.3 °F 33.8 °F 62% 30.07 in 10.0 mi ESE 4.6 mph - N/A   Scattered Clouds
2:35 PM 46.4 °F - 33.8 °F 62% 30.07 in 10.0 mi Calm Calm - N/A   Clear
2:55 PM 48.2 °F - 33.8 °F 58% 30.06 in 10.0 mi ESE 3.5 mph - N/A   Clear
3:15 PM 48.2 °F - 33.8 °F 58% 30.06 in 10.0 mi Calm Calm - N/A   Clear
3:35 PM 48.2 °F - 32.0 °F 54% 30.06 in 10.0 mi ESE 4.6 mph - N/A   Clear
3:55 PM 48.2 °F - 32.0 °F 54% 30.06 in 10.0 mi ESE 3.5 mph - N/A   Mostly Cloudy
4:15 PM 48.2 °F - 32.0 °F 54% 30.05 in 10.0 mi Calm Calm - N/A   Scattered Clouds
4:35 PM 46.4 °F 45.2 °F 33.8 °F 62% 30.05 in 10.0 mi ESE 3.5 mph - N/A   Clear
4:56 PM 44.6 °F - 33.8 °F 66% 30.06 in 10.0 mi Calm Calm - N/A   Unknown
5:15 PM 42.8 °F 41.1 °F 33.8 °F 70% 30.06 in 10.0 mi ESE 3.5 mph - N/A   Clear
5:35 PM 41.0 °F - 33.8 °F 76% 30.06 in 10.0 mi Calm Calm - N/A   Clear
5:55 PM 39.2 °F - 33.8 °F 81% 30.07 in 10.0 mi Calm Calm - N/A   Clear
6:15 PM 37.4 °F - 33.8 °F 87% 30.07 in 10.0 mi Calm Calm - N/A   Clear
6:35 PM 37.4 °F - 33.8 °F 87% 30.09 in 10.0 mi Calm Calm - N/A   Clear
7:15 PM 37.4 °F - 33.8 °F 87% 30.08 in 10.0 mi Calm Calm - N/A   Clear
7:35 PM 37.4 °F - 33.8 °F 87% 30.09 in 10.0 mi Calm Calm - N/A   Clear
7:55 PM 37.4 °F 34.9 °F 33.8 °F 87% 30.09 in 10.0 mi ESE 3.5 mph - N/A   Clear
8:15 PM 37.4 °F 33.8 °F 33.8 °F 87% 30.08 in 10.0 mi ESE 4.6 mph - N/A   Clear
8:35 PM 37.4 °F - 33.8 °F 87% 30.09 in 10.0 mi Calm Calm - N/A   Clear
8:55 PM 35.6 °F 32.8 °F 33.8 °F 93% 30.09 in 10.0 mi ESE 3.5 mph - N/A   Clear
9:16 PM 35.6 °F 32.8 °F 33.8 °F 93% 30.10 in 10.0 mi ESE 3.5 mph - N/A   Mostly Cloudy
9:35 PM 35.6 °F - 33.8 °F 93% 30.10 in 10.0 mi Calm Calm - N/A   Overcast
9:55 PM 37.4 °F - 33.8 °F 87% 30.11 in 10.0 mi Calm Calm - N/A   Overcast
10:15 PM 37.4 °F - 33.8 °F 87% 30.11 in 10.0 mi Calm Calm - N/A   Overcast
10:35 PM 39.2 °F - 35.6 °F 87% 30.11 in 10.0 mi Calm Calm - N/A   Overcast
10:55 PM 39.2 °F - 35.6 °F 87% 30.11 in 10.0 mi Calm Calm - N/A   Overcast
11:16 PM 39.2 °F - 35.6 °F 87% 30.12 in 10.0 mi Calm Calm - N/A   Overcast
11:55 PM 37.4 °F - 35.6 °F 93% 30.13 in 10.0 mi Calm Calm - N/A   Overcast